Hourly Data Report for July 10, 2013

All times are specified in Local Standard Time (LST). Add 1 hour to adjust for Daylight Saving Time where and when it is observed.

VICTORIA INTL A
BRITISH COLUMBIA

48°38'50.000" N
123°25'33.000" W
19.50 m
1018621
71799
YYJ

Related Data

No related data is available for this station

Download Data

Hourly Data (July 2013)
Hourly Data Report for July 10, 2013
Temp Definition
°C
Dew Point Temp Definition
°C
Rel Hum Definition
%
Wind Dir Definition
10's deg

Wind Spd Definition
km/h
Visibility Definition
km
Stn Press Definition
kPa
Hmdx Definition


Wind Chill Definition


Weather Definition


TIME
00:00 Legend Double Dagger 19.0 11.7 62 28 14 48.3 101.36     LegendNANA
01:00 Legend Double Dagger 18.7 11.1 61 36 4 48.3 101.36     Clear
02:00 Legend Double Dagger 13.7 11.6 87 6 10 48.3 101.36     LegendNANA
03:00 Legend Double Dagger 14.1 11.5 84 5 5 48.3 101.37     LegendNANA
04:00 Legend Double Dagger 13.1 11.8 92 9 4 48.3 101.38     Clear
05:00 Legend Double Dagger 13.1 11.4 89 6 3 48.3 101.39     LegendNANA
06:00 Legend Double Dagger 14.6 12.0 84 6 2 48.3 101.42     LegendNANA
07:00 Legend Double Dagger 17.2 11.1 67 29 7 48.3 101.44     Clear
08:00 Legend Double Dagger 17.0 11.6 70 7 8 48.3 101.46     LegendNANA
09:00 Legend Double Dagger 17.9 11.5 66 10 10 48.3 101.47     LegendNANA
10:00 Legend Double Dagger 18.8 12.2 65 9 17 48.3 101.48     Mainly Clear
11:00 Legend Double Dagger 19.0 12.6 66 9 13 48.3 101.47     LegendNANA
12:00 Legend Double Dagger 19.1 12.2 64 9 17 48.3 101.43     LegendNANA
13:00 Legend Double Dagger 19.7 12.1 61 9 18 48.3 101.39     Clear
14:00 Legend Double Dagger 20.5 12.1 58 8 15 48.3 101.35     LegendNANA
15:00 Legend Double Dagger 20.7 11.5 55 7 14 48.3 101.30     LegendNANA
16:00 Legend Double Dagger 21.6 10.9 50 10 13 48.3 101.21     Clear
17:00 Legend Double Dagger 20.6 10.8 53 5 9 48.3 101.15     LegendNANA
18:00 Legend Double Dagger 23.0 6.5 34 27 18 48.3 101.09     LegendNANA
19:00 Legend Double Dagger 21.3 6.2 37 23 20 48.3 101.08     Mainly Clear
20:00 Legend Double Dagger 18.9 5.8 42 24 24 48.3 101.08     LegendNANA
21:00 Legend Double Dagger 17.1 6.1 48 26 32 48.3 101.13     LegendNANA
22:00 Legend Double Dagger 15.1 6.2 55 26 31 48.3 101.17     Mainly Clear
23:00 Legend Double Dagger 14.5 6.4 58 27 18 48.3 101.20     LegendNANA

Notes on Data Quality.

Legend

  • E = Estimated
  • M = Missing
  • NA = Not Available
  • ‡ = Partner data that is not subject to review by the National Climate Archives
Date modified: